TimePST,TemperatureF,Dew PointF,Humidity,Sea Level PressureIn,VisibilityMPH,Wind Direction,Wind SpeedMPH,Gust SpeedMPH,PrecipitationIn,Events,Conditions,WindDirDegrees,DateUTC
12:15 AM,35.6,35.6,100,30.21,10.0,Calm,Calm,-,N/A,,Clear,0,2014-01-01 08:15:00
12:35 AM,33.8,33.8,100,30.20,8.0,Calm,Calm,-,N/A,,Clear,0,2014-01-01 08:35:00
12:55 AM,35.6,35.6,100,30.20,5.0,Calm,Calm,-,N/A,,Clear,0,2014-01-01 08:55:00
1:15 AM,35.6,35.6,100,30.20,1.2,Calm,Calm,-,N/A,,Clear,0,2014-01-01 09:15:00
1:35 AM,32.0,32.0,100,30.20,7.0,Calm,Calm,-,N/A,,Clear,0,2014-01-01 09:35:00
1:55 AM,32.0,32.0,100,30.21,0.8,Calm,Calm,-,N/A,,Mist,0,2014-01-01 09:55:00
2:15 AM,32.0,32.0,100,30.21,0.2,Calm,Calm,-,N/A,Fog,Light Freezing Fog,0,2014-01-01 10:15:00
2:35 AM,32.0,32.0,100,30.21,0.2,Calm,Calm,-,N/A,Fog,Fog,0,2014-01-01 10:35:00
2:55 AM,33.8,33.8,100,30.21,0.2,Calm,Calm,-,N/A,Fog,Fog,0,2014-01-01 10:55:00
3:15 AM,26.6,26.6,100,30.21,0.2,North,3.5,-,N/A,Fog,Light Freezing Fog,350,2014-01-01 11:15:00
3:35 AM,32.0,32.0,100,30.21,5.0,Calm,Calm,-,N/A,,Clear,0,2014-01-01 11:35:00
3:55 AM,32.0,32.0,100,30.20,1.2,SSW,3.5,-,N/A,,Clear,200,2014-01-01 11:55:00
4:15 AM,32.0,32.0,100,30.20,2.5,Calm,Calm,-,N/A,,Clear,0,2014-01-01 12:15:00
4:35 AM,28.4,28.4,100,30.19,2.0,Calm,Calm,-,N/A,,Clear,0,2014-01-01 12:35:00
4:55 AM,28.4,28.4,100,30.19,1.8,Calm,Calm,-,N/A,,Clear,0,2014-01-01 12:55:00
5:15 AM,30.2,30.2,100,30.19,0.2,Calm,Calm,-,N/A,Fog,Light Freezing Fog,0,2014-01-01 13:15:00
5:35 AM,32.0,32.0,100,30.19,0.2,Calm,Calm,-,N/A,Fog,Light Freezing Fog,0,2014-01-01 13:35:00
5:55 AM,28.4,28.4,100,30.19,0.2,Calm,Calm,-,N/A,Fog,Light Freezing Fog,0,2014-01-01 13:55:00
6:15 AM,30.2,30.2,100,30.20,0.2,Calm,Calm,-,N/A,Fog,Light Freezing Fog,0,2014-01-01 14:15:00
6:35 AM,30.2,30.2,100,30.20,0.8,Calm,Calm,-,N/A,,Mist,0,2014-01-01 14:35:00
6:55 AM,30.2,30.2,100,30.20,3.0,Calm,Calm,-,N/A,,Clear,0,2014-01-01 14:55:00
7:15 AM,30.2,30.2,100,30.20,2.0,North,-9999.0,-,N/A,,Clear,0,2014-01-01 15:15:00
7:35 AM,28.4,28.4,100,30.21,2.0,North,-9999.0,-,N/A,,Clear,0,2014-01-01 15:35:00
7:55 AM,24.8,24.8,100,30.21,0.2,Calm,Calm,-,N/A,Fog,Light Freezing Fog,0,2014-01-01 15:55:00
8:15 AM,28.4,28.4,100,30.21,3.0,Calm,Calm,-,N/A,,Mist,0,2014-01-01 16:15:00
8:35 AM,32.0,32.0,100,30.22,5.0,Calm,Calm,-,N/A,,Mist,0,2014-01-01 16:35:00
8:55 AM,33.8,33.8,100,30.23,7.0,Calm,Calm,-,N/A,,Unknown,0,2014-01-01 16:55:00
9:15 AM,37.4,37.4,100,30.23,8.0,Calm,Calm,-,N/A,,Unknown,0,2014-01-01 17:15:00
9:35 AM,39.2,39.2,100,30.23,10.0,Calm,Calm,-,N/A,,Unknown,0,2014-01-01 17:35:00
9:55 AM,41.0,39.2,93,30.23,10.0,Calm,Calm,-,N/A,,Unknown,0,2014-01-01 17:55:00
10:15 AM,44.6,39.2,81,30.23,10.0,Calm,Calm,-,N/A,,Unknown,0,2014-01-01 18:15:00
10:35 AM,46.4,39.2,76,30.22,10.0,Calm,Calm,-,N/A,,Unknown,0,2014-01-01 18:35:00
10:55 AM,50.0,39.2,66,30.22,10.0,Calm,Calm,-,N/A,,Unknown,0,2014-01-01 18:55:00
11:15 AM,53.6,39.2,58,30.21,10.0,Calm,Calm,-,N/A,,Unknown,0,2014-01-01 19:15:00
11:35 AM,55.4,39.2,54,30.20,10.0,Calm,Calm,-,N/A,,Unknown,0,2014-01-01 19:35:00
11:55 AM,55.4,39.2,54,30.19,10.0,Calm,Calm,-,N/A,,Unknown,0,2014-01-01 19:55:00
12:15 PM,57.2,39.2,51,30.19,10.0,ESE,3.5,-,N/A,,Unknown,120,2014-01-01 20:15:00
12:35 PM,59.0,37.4,45,30.18,10.0,SE,3.5,-,N/A,,Unknown,130,2014-01-01 20:35:00
12:55 PM,59.0,35.6,42,30.17,10.0,SE,4.6,-,N/A,,Unknown,130,2014-01-01 20:55:00
1:15 PM,59.0,32.0,36,30.16,10.0,SE,5.8,-,N/A,,Unknown,130,2014-01-01 21:15:00
1:35 PM,59.0,32.0,36,30.16,10.0,SE,5.8,-,N/A,,Unknown,130,2014-01-01 21:35:00
1:55 PM,60.8,28.4,29,30.15,10.0,SE,5.8,-,N/A,,Unknown,140,2014-01-01 21:55:00
2:15 PM,60.8,30.2,31,30.15,10.0,SE,3.5,-,N/A,,Unknown,130,2014-01-01 22:15:00
2:35 PM,62.6,30.2,30,30.15,10.0,South,5.8,-,N/A,,Unknown,190,2014-01-01 22:35:00
2:55 PM,62.6,28.4,27,30.15,10.0,South,6.9,-,N/A,,Unknown,180,2014-01-01 22:55:00
3:15 PM,62.6,28.4,27,30.15,10.0,South,4.6,-,N/A,,Unknown,170,2014-01-01 23:15:00
3:35 PM,64.4,30.2,28,30.14,10.0,Calm,Calm,-,N/A,,Unknown,0,2014-01-01 23:35:00
3:55 PM,62.6,32.0,32,30.14,10.0,SE,3.5,-,N/A,,Unknown,140,2014-01-01 23:55:00
4:15 PM,60.8,32.0,34,30.14,10.0,SE,4.6,-,N/A,,Unknown,130,2014-01-02 00:15:00
4:35 PM,59.0,32.0,36,30.14,10.0,SE,3.5,-,N/A,,Unknown,130,2014-01-02 00:35:00
4:55 PM,57.2,32.0,38,30.14,10.0,Calm,Calm,-,N/A,,Unknown,0,2014-01-02 00:55:00
5:15 PM,55.4,30.2,38,30.14,10.0,Calm,Calm,-,N/A,,Unknown,0,2014-01-02 01:15:00
5:35 PM,53.6,32.0,44,30.14,10.0,Calm,Calm,-,N/A,,Unknown,0,2014-01-02 01:35:00
5:55 PM,50.0,32.0,50,30.14,10.0,Calm,Calm,-,N/A,,Unknown,0,2014-01-02 01:55:00
6:15 PM,46.4,32.0,57,30.15,10.0,Calm,Calm,-,N/A,,Unknown,0,2014-01-02 02:15:00
6:35 PM,46.4,32.0,57,30.15,10.0,Calm,Calm,-,N/A,,Unknown,0,2014-01-02 02:35:00
6:55 PM,46.4,32.0,57,30.15,10.0,Calm,Calm,-,N/A,,Unknown,0,2014-01-02 02:55:00
7:15 PM,46.4,32.0,57,30.16,10.0,South,3.5,-,N/A,,Unknown,170,2014-01-02 03:15:00
7:35 PM,44.6,33.8,66,30.16,10.0,Calm,Calm,-,N/A,,Unknown,0,2014-01-02 03:35:00
7:55 PM,44.6,33.8,66,30.16,10.0,Calm,Calm,-,N/A,,Unknown,0,2014-01-02 03:55:00
8:15 PM,39.2,32.0,75,30.16,10.0,Calm,Calm,-,N/A,,Unknown,0,2014-01-02 04:15:00
8:35 PM,41.0,32.0,70,30.16,10.0,Calm,Calm,-,N/A,,Unknown,0,2014-01-02 04:35:00
8:55 PM,41.0,32.0,70,30.16,10.0,Calm,Calm,-,N/A,,Unknown,0,2014-01-02 04:55:00
9:15 PM,39.2,32.0,75,30.17,10.0,Calm,Calm,-,N/A,,Unknown,0,2014-01-02 05:15:00
9:35 PM,39.2,33.8,81,30.17,10.0,Calm,Calm,-,N/A,,Unknown,0,2014-01-02 05:35:00
9:55 PM,37.4,35.6,93,30.17,10.0,Calm,Calm,-,N/A,,Clear,0,2014-01-02 05:55:00
10:15 PM,37.4,37.4,100,30.18,10.0,Calm,Calm,-,N/A,,Clear,0,2014-01-02 06:15:00
10:35 PM,39.2,35.6,87,30.18,10.0,Calm,Calm,-,N/A,,Clear,0,2014-01-02 06:35:00
10:55 PM,37.4,35.6,93,30.18,10.0,Calm,Calm,-,N/A,,Clear,0,2014-01-02 06:55:00
11:15 PM,37.4,35.6,93,30.18,10.0,Calm,Calm,-,N/A,,Clear,0,2014-01-02 07:15:00
11:35 PM,39.2,37.4,93,30.18,10.0,Calm,Calm,-,N/A,,Clear,0,2014-01-02 07:35:00
11:55 PM,37.4,35.6,93,30.18,10.0,Calm,Calm,-,N/A,,Clear,0,2014-01-02 07:55:00